Regional Weather Roundup
Issued by NWS

Home | Current Version | Previous Version | Graphics & Text | Print | Product List | Glossary On
Versions: 1 2 3 4 5 6 7 8 9 10 11 12 13 14 15 16 17 18 19 20 21 22 23 24 25 26 27 28 29 30 31 32 33 34 35 36 37 38 39 40 41 42 43 44 45 46 47 48 49 50
000
ASUS43 KLMK 301110
RWRKY
KENTUCKY REGIONAL WEATHER ROUNDUP
NATIONAL WEATHER SERVICE LOUISVILLE KY
700 AM EDT TUE SEP 30 2014

NOTE "FAIR" INDICATES FEW OR NO CLOUDS BELOW 12,000 FEET
WITH NO SIGNIFICANT WEATHER AND/OR OBSTRUCTIONS TO VISIBILITY.

KYZ001>023-026-027-061>063-070>075-301200-
WESTERN AND SOUTH CENTRAL KENTUCKY

CITY           SKY/WX    TMP DP  RH WIND       PRES   REMARKS
PADUCAH        CLEAR     53  52  96 CALM      29.94S FOG
HENDERSON      NOT AVBL
OWENSBORO      CLEAR     54  52  94 CALM      29.96R
HOPKINSVILLE   CLEAR     56  55  97 CALM      29.95R
BOWLING GREEN  FOG       53  52  96 CALM      29.96R VSB 1/2
GLASGOW        CLEAR     52  52 100 CALM      29.96R FOG
$$

KYZ024-025-028>034-038-045-046-053-301200-
NORTH CENTRAL KENTUCKY

CITY           SKY/WX    TMP DP  RH WIND       PRES   REMARKS
LOUISVILLE/SDF CLEAR     59  55  87 CALM      29.95R
LOUISVILLE/LOU CLEAR     55  53  93 CALM      29.95R
FORT KNOX      CLEAR     51  50  98 W1        29.94R
$$

KYZ035>037-039>044-047>052-055>060-089>105-301200-
NORTHEAST KENTUCKY

CITY           SKY/WX    TMP DP  RH WIND       PRES   REMARKS
LEXINGTON      CLEAR     54  49  83 CALM      29.95S
COVINGTON      CLEAR     54  51  90 W3        29.93R
FRANKFORT      CLEAR     51  49  92 CALM      29.94R
$$

KYZ054-064>069-076>088-106>120-301200-
SOUTHEAST KENTUCKY

CITY           SKY/WX    TMP DP  RH WIND       PRES   REMARKS
JACKSON        PTCLDY    59  56  89 CALM      29.96S FOG
LONDON         FOG       57  55  93 CALM      29.97S VSB 1/4
SOMERSET       FOG       57  57 100 CALM      29.98R VSB 1/4
MIDDLESBORO    FOG       59  59 100 CALM      29.99S VSB 1/2
MONTICELLO     FOG       52  52 100 CALM      29.98S VSB 1/4
$$




USA.gov is the U.S. government's official web portal to all federal, state and local government web resources and services.